Location: Rogalle
(42.8890°N, 1.1916°E)
Time: 22:22:17
(UTC+00:00)

IRIDIUM 104 - Pass Details

Date: 13 December 2025
Orbit: 776 x 779 km, 86.4° (Epoch: 21 January)

Event Time Altitude Azimuth Distance (km) Brightness Sun altitude
Rises 17:11:04 0° 356° (N) 3,272 7.4 -8.9°
Reaches altitude 10° 17:13:26 10° 356° (N) 2,340 6.6 -9.3°
Maximum altitude 17:18:41 84° 269° (W) 788 4.4 -10.2°
Drops below altitude 10° 17:23:53 10° 181° (S) 2,320 7.1 -11.1°
Sets 17:26:13 0° 181° (S) 3,243 7.9 -11.5°
